Nenana, AK

2:13 AM AKST on February 12, 2016 (GMT -0900)
Nenana Municipal

Weather History for PANN - October, 2013

Change the Weather History Date:

Wednesday, October 16, 2013

  Actual Average Record
Temperature  
Mean Temperature 48 °F -  
Max Temperature 55 °F 29 °F 68 °F (2015)
Min Temperature 42 °F 14 °F -7 °F (2008)
Degree Days  
Heating Degree Days 16    
Moisture  
Dew Point 38 °F    
Average Humidity 67    
Maximum Humidity 93    
Minimum Humidity 49    
Precipitation  
Precipitation 0.03 in - - ()
Sea Level Pressure  
Sea Level Pressure 30.03 in    
Wind  
Wind Speed 6 mph (ESE)    
Max Wind Speed 12 mph    
Max Gust Speed -    
Visibility 10 miles    
Events Rain    
Averages and records for this station are not official NWS values.
T = Trace of Precipitation, MM = Missing Value Source: NWS Daily Summary

Daily Weather History Graph

Daily Weather History Graph

Search for Another Location

Airport or City:

Trip Planner

Search our weather history database for the weather conditions in past years. The results will help you decide how hot, cold, wet, or windy it might be!

Date:

Astronomy

Oct. 16, 2013 Rise Set
Actual Time 8:52 AM AKDT 6:29 PM AKDT
Civil Twilight 8:02 AM AKDT 7:19 PM AKDT
Nautical Twilight 7:06 AM AKDT 8:15 PM AKDT
Astronomical Twilight 6:09 AM AKDT 9:12 PM AKDT
Moon 5:45 PM AKDT (10/16) 5:50 AM AKDT (10/16)
Length of Visible Light 11h 16m
Length of Day
9h 37m
Waxing Gibbous, 95% of the Moon is Illuminated
Oct 16
Waxing Gibbous
Oct 18
Full
Oct 26
Last Quarter
Nov 3
New
Nov 9
First Quarter

Hourly Weather History & Observations

Time (AKDT) Temp. Windchill Dew Point Humidity Pressure Visibility Wind Dir Wind Speed Gust Speed Precip Events Conditions
12:53 AM 52.0 °F - 33.1 °F 49% 29.90 in 10.0 mi SW 5.8 mph - N/A   Mostly Cloudy
1:53 AM 52.0 °F - 34.0 °F 50% 29.94 in 10.0 mi SSW 8.1 mph - N/A   Overcast
2:53 AM 52.0 °F - 34.0 °F 50% 29.97 in 10.0 mi SSW 8.1 mph - N/A   Overcast
3:53 AM 51.1 °F - 34.0 °F 52% 29.99 in 10.0 mi SW 5.8 mph - N/A   Overcast
4:53 AM 51.1 °F - 35.1 °F 54% 30.02 in 10.0 mi Calm Calm - N/A   Overcast
5:53 AM 46.9 °F - 41.0 °F 80% 30.03 in 10.0 mi SSW 3.5 mph - 0.02 in Rain Light Rain
6:53 AM 45.0 °F - 43.0 °F 93% 30.04 in 10.0 mi Calm Calm - 0.01 in Rain Light Rain
7:53 AM 44.1 °F 42.5 °F 42.1 °F 93% 30.04 in 10.0 mi ENE 3.5 mph - 0.00 in Rain Light Rain
8:53 AM 43.0 °F - 41.0 °F 93% 30.04 in 10.0 mi Calm Calm - 0.00 in   Overcast
9:53 AM 44.1 °F 39.5 °F 39.9 °F 85% 30.02 in 10.0 mi East 8.1 mph - N/A   Overcast
10:53 AM 46.0 °F 41.9 °F 41.0 °F 83% 30.02 in 10.0 mi ENE 8.1 mph - N/A   Clear
11:53 AM 48.0 °F - 39.0 °F 71% 30.02 in 10.0 mi East 6.9 mph - N/A   Clear
12:53 PM 48.9 °F - 37.9 °F 66% 30.00 in 10.0 mi East 11.5 mph - N/A   Clear
1:53 PM 50.0 °F - 37.9 °F 63% 29.99 in 10.0 mi East 11.5 mph - N/A   Clear
2:53 PM 50.0 °F - 37.9 °F 63% 29.99 in 10.0 mi East 8.1 mph - N/A   Clear
3:53 PM 50.0 °F - 37.9 °F 63% 29.99 in 10.0 mi East 9.2 mph - N/A   Scattered Clouds
4:53 PM 51.1 °F - 37.9 °F 61% 29.97 in 10.0 mi East 6.9 mph - N/A   Clear
5:53 PM 51.1 °F - 37.0 °F 59% 29.97 in 10.0 mi East 9.2 mph - N/A   Clear
6:53 PM 50.0 °F - 37.0 °F 61% 29.97 in 10.0 mi East 8.1 mph - N/A   Clear
7:53 PM 50.0 °F - 36.0 °F 59% 29.97 in 10.0 mi SE 5.8 mph - N/A   Scattered Clouds
9:53 PM 48.9 °F - 36.0 °F 61% 29.97 in 10.0 mi East 5.8 mph - N/A   Partly Cloudy
10:53 PM 48.0 °F - 36.0 °F 63% 29.96 in 10.0 mi ESE 3.5 mph - N/A   Clear
11:53 PM 48.9 °F - 36.0 °F 61% 29.94 in 10.0 mi ENE 5.8 mph - N/A   Partly Cloudy